HUGOCO Weather Reports


Display with metric or nautical units.
time (UTC)temp
F
wind
direction
speed
MPH
gust
MPH
rain 1hr
in
rain 24hr
in
rain mn
in
humidity
%
barometer
mb
20260507144552 53 359 13.0 17.0 0.00 0.23 0.00 46 1023.2
20260507144052 52 359 12.0 15.0 0.00 0.23 0.00 47 1023.1
20260507143552 51 359 13.0 18.0 0.00 0.23 0.00 50 1023.2
20260507143052 51 359 13.0 18.0 0.00 0.23 0.00 47 1023.3
20260507142552 50 359 13.0 18.0 0.00 0.23 0.00 48 1023.3
20260507142052 50 359 14.0 17.0 0.00 0.23 0.00 47 1023.3
20260507141552 50 359 14.0 19.0 0.00 0.23 0.00 44 1023.4
20260507141052 50 359 14.0 20.0 0.00 0.23 0.00 47 1023.4
20260507140552 49 359 14.0 18.0 0.00 0.23 0.00 48 1023.5
20260507140052 49 359 12.0 20.0 0.00 0.23 0.00 47 1023.5
20260507135552 48 359 9.0 16.0 0.00 0.23 0.00 53 1023.5
20260507135052 47 359 9.0 12.0 0.00 0.23 0.00 58 1023.6
20260507134552 45 359 8.0 11.0 0.00 0.23 0.00 59 1023.8
20260507134052 42 359 5.0 11.0 0.00 0.23 0.00 68 1023.7
20260507133552 42 359 5.0 11.0 0.00 0.23 0.00 69 1023.8
20260507133052 41 359 5.0 8.0 0.00 0.23 0.00 70 1023.7
20260507132552 40 359 7.0 10.0 0.00 0.23 0.00 71 1023.6
20260507132052 39 359 9.0 10.0 0.00 0.23 0.00 71 1023.5
20260507131552 38 359 9.0 11.0 0.00 0.23 0.00 70 1023.5
20260507131052 37 359 7.0 11.0 0.00 0.23 0.00 71 1023.4
20260507130552 37 359 6.0 10.0 0.00 0.23 0.00 72 1023.5
20260507130052 37 359 4.0 10.0 0.00 0.23 0.00 72 1023.4
20260507125552 37 359 5.0 8.0 0.00 0.23 0.00 72 1023.5
20260507125052 37 359 8.0 11.0 0.00 0.23 0.00 71 1023.6
20260507124552 37 359 9.0 12.0 0.00 0.23 0.00 70 1023.4
20260507124052 37 359 12.0 11.0 0.00 0.23 0.00 69 1023.3
20260507123552 38 359 14.0 16.0 0.00 0.23 0.00 66 1023.3
20260507123052 36 359 14.0 16.0 0.00 0.23 0.00 70 1023.2
20260507122552 37 359 14.0 16.0 0.00 0.23 0.00 68 1023.1
20260507122052 37 359 14.0 16.0 0.00 0.23 0.00 69 1023.0
20260507121552 36 359 13.0 15.0 0.00 0.23 0.00 70 1023.1
20260507121052 36 359 14.0 14.0 0.00 0.23 0.00 71 1023.0
20260507120552 36 359 15.0 16.0 0.00 0.23 0.00 71 1023.2
20260507120052 36 359 16.0 17.0 0.00 0.23 0.00 71 1023.2
20260507115553 36 359 16.0 17.0 0.00 0.23 0.00 71 1023.1
20260507115053 36 359 16.0 17.0 0.00 0.23 0.00 72 1023.1
20260507114553 36 359 16.0 17.0 0.00 0.23 0.00 72 1023.2
20260507114053 36 359 17.0 18.0 0.00 0.23 0.00 73 1023.2
20260507113553 36 359 17.0 19.0 0.00 0.23 0.00 73 1023.2
20260507113053 36 359 17.0 18.0 0.00 0.23 0.00 73 1023.3
20260507112553 36 359 17.0 19.0 0.00 0.23 0.00 74 1023.3
20260507112053 35 359 18.0 18.0 0.00 0.23 0.00 75 1023.3
20260507111553 35 359 17.0 19.0 0.00 0.23 0.00 76 1023.4
20260507111053 35 359 17.0 19.0 0.00 0.23 0.00 77 1023.5
20260507110553 35 359 17.0 20.0 0.00 0.23 0.00 78 1023.5
20260507110053 35 359 18.0 20.0 0.00 0.23 0.00 79 1023.5
20260507105553 34 359 17.0 20.0 0.00 0.23 0.00 80 1023.7
20260507105053 34 359 14.0 18.0 0.00 0.23 0.00 81 1023.7
20260507104553 34 359 13.0 16.0 0.00 0.23 0.00 81 1023.9
20260507104053 34 359 14.0 15.0 0.00 0.23 0.00 80 1023.9
20260507103553 35 359 17.0 17.0 0.00 0.23 0.00 80 1024.0
20260507103053 35 359 19.0 21.0 0.00 0.23 0.00 78 1024.0
20260507102553 36 359 18.0 22.0 0.00 0.23 0.00 78 1024.0
20260507102053 35 359 18.0 22.0 0.00 0.23 0.00 79 1024.1
20260507101553 35 359 17.0 21.0 0.00 0.23 0.00 81 1024.1
20260507101053 34 359 16.0 19.0 0.00 0.23 0.00 84 1024.1
20260507100553 33 359 15.0 18.0 0.00 0.23 0.00 85 1024.3
20260507100053 33 359 14.0 15.0 0.00 0.23 0.00 85 1024.2
20260507095553 33 359 14.0 16.0 0.00 0.23 0.00 85 1024.2
20260507095053 33 359 14.0 16.0 0.00 0.23 0.00 85 1024.2
20260507094553 33 359 15.0 16.0 0.00 0.23 0.00 85 1024.3
20260507094132 33 359 16.0 18.0 0.00 0.23 0.00 86 1024.3
20260507094053 33 359 16.0 18.0 0.00 0.23 0.00 86 1024.3
20260507093553 33 359 17.0 21.0 0.00 0.23 0.00 86 1024.3
20260507093053 33 359 16.0 20.0 0.00 0.23 0.00 87 1024.3
20260507092553 33 359 16.0 19.0 0.00 0.23 0.00 87 1024.3
20260507092053 33 359 15.0 18.0 0.00 0.23 0.00 87 1024.4
20260507091553 33 359 14.0 17.0 0.00 0.23 0.00 87 1024.4
20260507091053 33 359 14.0 15.0 0.00 0.23 0.00 86 1024.6
20260507090553 33 359 15.0 18.0 0.00 0.23 0.00 86 1024.6
20260507090053 33 359 15.0 18.0 0.00 0.23 0.00 86 1024.5
20260507085553 33 359 16.0 18.0 0.00 0.23 0.00 86 1024.6
20260507085053 34 359 16.0 20.0 0.00 0.23 0.00 86 1024.6
20260507084553 34 359 17.0 20.0 0.00 0.23 0.00 86 1024.7
20260507084053 34 359 18.0 21.0 0.00 0.23 0.00 86 1024.8
20260507083553 34 359 18.0 22.0 0.00 0.23 0.00 86 1024.6
20260507083053 34 359 18.0 24.0 0.00 0.23 0.00 86 1024.8
20260507082553 34 359 18.0 21.0 0.00 0.23 0.00 86 1024.9
20260507082053 34 359 18.0 24.0 0.00 0.23 0.00 86 1024.8
20260507081553 34 359 19.0 23.0 0.00 0.23 0.00 86 1025.0
20260507081053 34 359 19.0 23.0 0.00 0.23 0.00 86 1025.1
20260507080553 34 359 19.0 25.0 0.00 0.23 0.00 86 1025.2
20260507080053 34 359 19.0 23.0 0.00 0.23 0.00 86 1025.2
20260507075553 34 359 19.0 25.0 0.00 0.23 0.00 87 1025.2
20260507075053 34 359 19.0 26.0 0.00 0.23 0.00 87 1025.2
20260507074553 34 359 18.0 22.0 0.00 0.23 0.00 87 1025.2
20260507074053 34 359 16.0 22.0 0.00 0.23 0.00 87 1025.4
20260507073553 34 359 16.0 19.0 0.00 0.23 0.00 87 1025.4
20260507073053 34 359 16.0 20.0 0.00 0.23 0.00 87 1025.6
20260507072637 34 359 16.0 21.0 0.00 0.23 0.00 87 1025.6
20260507072553 34 359 16.0 21.0 0.00 0.23 0.00 87 1025.6
20260507072053 34 359 16.0 20.0 0.00 0.23 0.00 87 1025.7
20260507071553 34 359 16.0 20.0 0.00 0.23 0.00 87 1025.7
20260507071053 34 359 15.0 18.0 0.00 0.23 0.00 88 1025.8
20260507070553 34 359 16.0 21.0 0.00 0.23 0.00 88 1026.0
20260507070053 34 359 15.0 20.0 0.00 0.23 0.00 88 1026.0
20260507065641 34 359 14.0 19.0 0.00 0.23 0.00 89 1026.0
20260507065553 34 359 14.0 19.0 0.00 0.23 0.00 89 1026.0
20260507065053 34 359 13.0 18.0 0.00 0.23 0.00 89 1026.1
20260507064553 33 359 12.0 16.0 0.00 0.23 0.00 90 1026.0
20260507064053 33 359 11.0 15.0 0.00 0.23 0.00 90 1026.1
20260507063553 33 359 11.0 14.0 0.00 0.23 0.00 90 1026.1
20260507063053 33 359 11.0 14.0 0.00 0.23 0.00 90 1026.1
20260507062553 33 359 11.0 13.0 0.00 0.23 0.23 90 1026.1
20260507062053 33 359 12.0 14.0 0.00 0.23 0.23 90 1026.1
20260507061553 33 359 12.0 13.0 0.00 0.23 0.23 90 1026.1
20260507061053 33 359 12.0 14.0 0.00 0.23 0.23 90 1026.1
20260507060553 33 359 13.0 14.0 0.00 0.23 0.23 90 1026.1
20260507060053 34 359 13.0 15.0 0.00 0.23 0.23 90 1026.1
20260507055553 34 359 13.0 15.0 0.00 0.23 0.23 90 1026.2
20260507055053 34 359 12.0 14.0 0.00 0.23 0.23 90 1026.2
20260507054553 34 359 12.0 14.0 0.00 0.23 0.23 90 1026.2
20260507054053 34 359 12.0 14.0 0.00 0.23 0.23 90 1026.2
20260507053553 34 359 12.0 14.0 0.00 0.23 0.23 89 1026.2
20260507053053 34 359 12.0 13.0 0.00 0.23 0.23 89 1026.3
20260507052553 34 359 12.0 16.0 0.00 0.23 0.23 89 1026.3
20260507052053 34 359 12.0 17.0 0.00 0.23 0.23 89 1026.3
20260507051553 34 359 13.0 15.0 0.00 0.23 0.23 89 1026.3
20260507051502 34 359 14.0 16.0 0.00 0.23 0.23 89 1026.3
20260507051053 34 359 14.0 16.0 0.00 0.23 0.23 89 1026.3
20260507050553 34 359 14.0 17.0 0.00 0.23 0.23 89 1026.3
20260507050053 34 359 14.0 17.0 0.00 0.23 0.23 89 1026.3
20260507045756 34 359 14.0 17.0 0.00 0.23 0.23 88 1026.4
20260507045553 34 359 14.0 17.0 0.00 0.23 0.23 88 1026.4
20260507045053 34 359 14.0 16.0 0.00 0.23 0.23 88 1026.4
20260507044553 34 359 14.0 16.0 0.00 0.23 0.23 87 1026.5
20260507044053 34 359 15.0 17.0 0.00 0.23 0.23 87 1026.5
20260507043553 34 359 16.0 18.0 0.00 0.23 0.23 86 1026.5
20260507043053 34 359 16.0 19.0 0.00 0.23 0.23 85 1026.5
20260507043001 34 359 16.0 18.0 0.00 0.23 0.23 84 1026.6
20260507042553 34 359 16.0 18.0 0.00 0.23 0.23 84 1026.6
20260507042054 34 359 15.0 17.0 0.00 0.23 0.23 83 1026.6
20260507041554 34 359 15.0 16.0 0.00 0.23 0.23 82 1026.6
20260507041235 34 359 15.0 18.0 0.00 0.23 0.23 81 1026.6
20260507041054 34 359 15.0 18.0 0.00 0.23 0.23 81 1026.6
20260507040554 35 359 15.0 17.0 0.00 0.23 0.23 81 1026.6
20260507040054 35 359 13.0 17.0 0.00 0.23 0.23 81 1026.6
20260507035554 35 359 12.0 14.0 0.00 0.23 0.23 80 1026.7
20260507035054 35 359 12.0 13.0 0.00 0.23 0.23 79 1026.7
20260507034554 36 359 12.0 12.0 0.00 0.23 0.23 78 1026.8
20260507034054 37 359 11.0 13.0 0.00 0.24 0.23 76 1026.7
20260507033554 37 359 10.0 11.0 0.00 0.24 0.23 75 1026.7
20260507033054 38 359 10.0 11.0 0.00 0.24 0.23 74 1026.7
20260507032719 38 359 10.0 12.0 0.00 0.24 0.23 74 1026.7
20260507032554 38 359 10.0 12.0 0.00 0.24 0.23 74 1026.7
20260507032054 38 359 9.0 12.0 0.00 0.24 0.23 74 1026.7
20260507031554 38 359 6.0 9.0 0.00 0.24 0.23 74 1026.7
20260507031219 37 359 6.0 8.0 0.00 0.24 0.23 75 1026.7
20260507031054 37 359 6.0 8.0 0.00 0.24 0.23 75 1026.7
20260507030554 37 359 5.0 6.0 0.00 0.24 0.23 75 1026.6
20260507030054 37 359 5.0 6.0 0.00 0.24 0.23 77 1026.6
20260507025708 36 359 4.0 6.0 0.00 0.24 0.23 77 1026.5
20260507025554 36 359 4.0 6.0 0.00 0.24 0.23 77 1026.5
20260507025054 37 359 4.0 5.0 0.00 0.24 0.23 76 1026.6
20260507024554 37 359 6.0 6.0 0.00 0.24 0.23 74 1026.6
20260507024054 38 359 7.0 8.0 0.00 0.26 0.23 73 1026.6
20260507023554 38 359 7.0 8.0 0.00 0.26 0.23 72 1026.6
20260507023054 38 359 6.0 9.0 0.00 0.26 0.23 71 1026.5
20260507022554 39 359 5.0 6.0 0.00 0.26 0.23 69 1026.6
20260507022054 38 359 5.0 6.0 0.00 0.26 0.23 70 1026.6
20260507021554 39 359 5.0 5.0 0.00 0.26 0.23 72 1026.6
20260507021054 39 359 4.0 6.0 0.00 0.26 0.23 71 1026.6
20260507020554 39 359 5.0 5.0 0.00 0.26 0.23 70 1026.6
20260507020054 39 359 5.0 6.0 0.00 0.26 0.23 69 1026.4
20260507015554 39 359 5.0 6.0 0.00 0.26 0.23 70 1026.5
20260507015054 39 359 5.0 6.0 0.00 0.26 0.23 69 1026.6
20260507014554 39 359 4.0 5.0 0.00 0.26 0.23 68 1026.6
20260507014054 40 359 4.0 4.0 0.00 0.28 0.23 69 1026.6
20260507013554 40 359 4.0 5.0 0.00 0.28 0.23 69 1026.7
20260507013054 40 359 4.0 5.0 0.00 0.28 0.23 68 1026.7
20260507012554 40 359 4.0 5.0 0.00 0.28 0.23 70 1026.6
20260507012054 40 359 4.0 5.0 0.00 0.28 0.23 70 1026.6
20260507011554 40 359 4.0 4.0 0.00 0.28 0.23 70 1026.6
20260507011054 40 359 5.0 6.0 0.00 0.28 0.23 70 1026.6
20260507010554 40 359 6.0 8.0 0.00 0.28 0.23 69 1026.5
20260507010054 40 359 7.0 10.0 0.00 0.28 0.23 67 1026.5
20260507005554 41 359 6.0 11.0 0.00 0.28 0.23 66 1026.5
20260507005054 41 359 3.0 8.0 0.00 0.28 0.23 67 1026.4
20260507004554 41 359 1.0 1.0 0.00 0.28 0.23 67 1026.4
20260507004431 40 359 2.0 3.0 0.00 0.32 0.23 67 1026.4
20260507004054 40 359 2.0 3.0 0.00 0.32 0.23 67 1026.4
20260507003554 40 359 2.0 4.0 0.00 0.32 0.23 69 1026.3
20260507003054 40 359 2.0 4.0 0.00 0.32 0.23 69 1026.4
20260507002554 40 359 1.0 4.0 0.00 0.32 0.23 68 1026.4
20260507002054 40 359 1.0 4.0 0.00 0.32 0.23 69 1026.3
20260507001554 40 359 1.0 4.0 0.00 0.32 0.23 71 1026.4
20260507001054 40 359 1.0 3.0 0.00 0.32 0.23 72 1026.4
20260507000554 40 359 1.0 4.0 0.00 0.32 0.23 75 1026.4
20260507000054 40 359 0.0 4.0 0.00 0.32 0.23 76 1026.4
20260506235554 39 359 1.0 1.0 0.00 0.32 0.23 75 1026.5
20260506235054 39 359 2.0 3.0 0.00 0.32 0.23 74 1026.5
20260506234554 39 359 1.0 4.0 0.00 0.32 0.23 74 1026.4
20260506234054 39 359 1.0 2.0 0.00 0.33 0.23 78 1026.4
20260506233554 39 359 0.0 3.0 0.00 0.33 0.23 78 1026.5
20260506233054 38 359 1.0 1.0 0.00 0.33 0.23 79 1026.6
20260506232554 38 359 2.0 4.0 0.00 0.33 0.23 79 1026.5
20260506232054 38 359 2.0 5.0 0.00 0.33 0.23 80 1026.6
20260506231554 38 359 2.0 4.0 0.00 0.33 0.23 81 1026.5
20260506231054 38 359 1.0 3.0 0.01 0.33 0.23 83 1026.5
20260506230554 38 359 2.0 2.0 0.01 0.33 0.23 83 1026.5
20260506230054 37 359 2.0 4.0 0.01 0.33 0.23 84 1026.5
20260506225554 37 359 2.0 4.0 0.01 0.33 0.23 85 1026.5
20260506225054 37 359 2.0 4.0 0.01 0.33 0.23 86 1026.5
20260506224554 37 359 2.0 4.0 0.01 0.33 0.23 87 1026.5
20260506224054 37 359 2.0 4.0 0.01 0.34 0.23 88 1026.5
20260506223554 37 359 2.0 3.0 0.01 0.34 0.23 89 1026.5
20260506223054 37 359 3.0 5.0 0.01 0.34 0.23 89 1026.6
20260506222554 37 359 3.0 6.0 0.01 0.34 0.23 90 1026.5
20260506222054 37 359 4.0 5.0 0.01 0.34 0.23 91 1026.6
20260506221554 37 359 4.0 8.0 0.01 0.34 0.23 91 1026.7
20260506221054 37 359 4.0 6.0 0.00 0.33 0.22 92 1026.7
20260506220554 37 359 5.0 10.0 0.00 0.33 0.22 93 1026.5
20260506220054 37 359 5.0 9.0 0.00 0.33 0.22 94 1026.5
20260506215554 37 359 6.0 9.0 0.00 0.33 0.22 95 1026.4
20260506215054 36 359 6.0 10.0 0.00 0.33 0.22 94 1026.6
20260506214554 36 359 8.0 10.0 0.00 0.33 0.22 95 1026.6
20260506214054 35 359 8.0 11.0 0.00 0.34 0.22 95 1026.7
20260506213554 35 359 8.0 10.0 0.01 0.34 0.22 95 1026.9
20260506213054 35 359 8.0 10.0 0.01 0.34 0.22 95 1026.9
20260506212554 35 359 8.0 10.0 0.01 0.34 0.22 95 1026.8
20260506212054 34 359 9.0 8.0 0.01 0.34 0.22 96 1027.0
20260506211554 34 359 9.0 13.0 0.01 0.34 0.22 96 1027.0
20260506211054 34 359 9.0 12.0 0.01 0.34 0.22 96 1027.0
20260506210554 34 359 10.0 11.0 0.01 0.34 0.22 96 1027.1
20260506210054 34 359 11.0 13.0 0.02 0.34 0.22 96 1027.1
20260506205555 33 359 11.0 14.0 0.02 0.34 0.22 96 1027.1
20260506205054 34 359 11.0 12.0 0.02 0.34 0.22 96 1027.2
20260506204554 34 359 10.0 15.0 0.03 0.34 0.22 96 1027.2
20260506204055 34 359 11.0 13.0 0.03 0.34 0.22 96 1027.1
20260506203555 33 359 12.0 15.0 0.02 0.33 0.21 96 1027.2
20260506203055 33 359 13.0 14.0 0.02 0.33 0.21 96 1027.2
20260506203002 33 359 13.0 15.0 0.03 0.33 0.21 96 1027.3
20260506202555 33 359 13.0 15.0 0.03 0.33 0.21 96 1027.3
20260506202055 33 359 12.0 16.0 0.03 0.33 0.21 96 1027.2
20260506201555 33 359 11.0 12.0 0.03 0.33 0.21 96 1027.3
20260506201055 33 359 11.0 14.0 0.04 0.33 0.21 96 1027.3
20260506200555 33 359 11.0 13.0 0.04 0.33 0.21 96 1027.2
20260506200055 33 359 11.0 13.0 0.03 0.32 0.20 96 1027.3
20260506195555 32 359 12.0 13.0 0.04 0.32 0.20 96 1027.1
20260506195055 32 359 12.0 13.0 0.04 0.32 0.20 96 1027.2
20260506194555 32 359 12.0 14.0 0.03 0.31 0.19 96 1027.2
20260506194055 32 359 14.0 15.0 0.04 0.32 0.19 96 1027.1
20260506193555 32 359 13.0 16.0 0.04 0.32 0.19 96 1027.1
20260506193055 32 359 13.0 15.0 0.04 0.32 0.19 96 1027.3
20260506192555 32 359 13.0 14.0 0.04 0.31 0.18 95 1027.3
20260506192055 32 359 13.0 15.0 0.04 0.31 0.18 96 1027.2
20260506191555 32 359 12.0 14.0 0.05 0.31 0.18 95 1027.0
20260506191055 32 359 12.0 14.0 0.04 0.30 0.17 96 1027.2
20260506190555 32 359 12.0 14.0 0.05 0.30 0.17 96 1027.2
20260506190055 32 359 11.0 14.0 0.06 0.30 0.17 95 1027.1
20260506185555 32 359 11.0 13.0 0.05 0.29 0.16 96 1027.1
20260506185055 32 359 12.0 13.0 0.06 0.29 0.16 95 1027.0
20260506184555 32 359 12.0 13.0 0.06 0.29 0.16 96 1027.0
20260506184055 32 359 11.0 14.0 0.06 0.28 0.15 96 1027.0
20260506183555 32 359 11.0 13.0 0.07 0.28 0.15 96 1027.1
20260506183055 32 359 11.0 12.0 0.08 0.28 0.15 96 1027.1
20260506182555 32 359 11.0 13.0 0.08 0.27 0.14 96 1027.0
20260506182055 32 359 11.0 14.0 0.09 0.27 0.14 96 1027.0
20260506181555 32 359 11.0 12.0 0.08 0.26 0.13 96 1027.1
20260506181055 32 359 12.0 14.0 0.10 0.26 0.13 96 1027.0
20260506180555 32 359 13.0 15.0 0.09 0.25 0.12 96 1027.1
20260506180055 32 359 14.0 16.0 0.08 0.24 0.11 96 1027.0
20260506175555 32 359 15.0 17.0 0.09 0.24 0.11 96 1027.1
20260506175055 32 359 15.0 18.0 0.09 0.23 0.10 96 1026.9
20260506174555 32 359 16.0 18.0 0.09 0.23 0.10 96 1026.8
20260506174055 32 359 16.0 20.0 0.08 0.22 0.09 96 1026.8
20260506173555 32 359 14.0 18.0 0.07 0.21 0.08 96 1026.6
20260506173055 32 359 14.0 15.0 0.06 0.20 0.07 96 1026.7
20260506172555 32 359 15.0 15.0 0.05 0.19 0.06 96 1026.6
20260506172055 32 359 14.0 16.0 0.04 0.18 0.05 96 1026.7
20260506171555 32 359 12.0 16.0 0.04 0.18 0.05 96 1026.8
20260506171055 32 359 13.0 14.0 0.03 0.16 0.03 96 1026.7
20260506170555 31 359 14.0 15.0 0.03 0.16 0.03 96 1026.5
20260506170055 31 359 13.0 15.0 0.03 0.16 0.03 96 1026.6
20260506165555 32 359 13.0 15.0 0.02 0.15 0.02 96 1026.5
20260506165055 32 359 13.0 14.0 0.01 0.14 0.01 96 1026.4
20260506164555 31 359 13.0 15.0 0.01 0.14 0.01 96 1026.4
20260506164055 31 359 12.0 15.0 0.01 0.15 0.01 96 1026.4
20260506163555 31 359 12.0 14.0 0.01 0.15 0.01 96 1026.3
20260506163055 31 359 12.0 14.0 0.01 0.15 0.01 96 1026.3
20260506162555 31 359 12.0 14.0 0.01 0.15 0.01 96 1026.4
20260506162055 31 359 13.0 16.0 0.01 0.15 0.01 96 1026.2
20260506161555 31 359 13.0 15.0 0.01 0.15 0.01 96 1026.2
20260506161055 31 359 12.0 14.0 0.00 0.14 0.00 96 1026.1
20260506160555 31 359 13.0 15.0 0.00 0.14 0.00 96 1026.1
20260506160055 31 359 13.0 17.0 0.00 0.14 0.00 96 1025.9
20260506155555 31 359 13.0 15.0 0.00 0.14 0.00 96 1025.8
20260506155055 31 359 14.0 16.0 0.00 0.14 0.00 96 1025.7
20260506154555 31 359 14.0 17.0 0.00 0.14 0.00 96 1025.8
20260506154055 31 359 13.0 15.0 0.00 0.15 0.00 96 1025.7
20260506153555 31 359 12.0 15.0 0.00 0.15 0.00 96 1025.6
20260506153055 31 359 13.0 14.0 0.00 0.15 0.00 96 1025.8
20260506152555 31 359 13.0 15.0 0.00 0.15 0.00 96 1025.9
20260506152055 31 359 12.0 16.0 0.00 0.15 0.00 96 1025.8
20260506151555 31 359 12.0 14.0 0.00 0.15 0.00 96 1025.6
20260506151055 31 359 13.0 15.0 0.00 0.15 0.00 95 1025.5
20260506150555 31 359 13.0 15.0 0.00 0.15 0.00 95 1025.5
20260506150055 31 359 12.0 16.0 0.00 0.15 0.00 95 1025.4
20260506145555 31 359 10.0 15.0 0.00 0.15 0.00 95 1025.4
20260506145055 31 359 10.0 12.0 0.00 0.15 0.00 95 1025.4